Tabellarische Ansicht des 7.12.2018


Die einzelnen Werte des Tages

Uhrzeit Temperatur Luftdruck Luftfeuchte Wind Hi-Wind Taupunkt THW Index Wind Chill Heat Index Solar- strahlung Regen

00:00

11.8 C

1009.2 hpa

92 %

17.7 km/h aus 116

29.0 km/h aus SE

10.5 C

9.2 C

9.1 C

11.9 C

0 W/m

0.00 mm

00:05

11.8 C

1009.2 hpa

92 %

17.7 km/h aus 113

29.0 km/h aus SSW

10.5 C

9.2 C

9.1 C

11.9 C

0 W/m

0.00 mm

00:10

11.8 C

1009.2 hpa

92 %

17.7 km/h aus 113

33.8 km/h aus SW

10.5 C

9.2 C

9.1 C

11.9 C

0 W/m

0.00 mm

00:15

11.8 C

1009.1 hpa

91 %

16.1 km/h aus 115

25.7 km/h aus S

10.4 C

9.6 C

9.6 C

11.9 C

0 W/m

0.00 mm

00:20

11.8 C

1009.1 hpa

91 %

14.5 km/h aus 117

24.1 km/h aus SSW

10.4 C

9.9 C

9.9 C

11.9 C

0 W/m

0.00 mm

00:25

11.9 C

1009.1 hpa

91 %

19.3 km/h aus 117

40.2 km/h aus SW

10.5 C

9.1 C

9.0 C

11.9 C

0 W/m

0.00 mm

00:30

11.9 C

1009.0 hpa

91 %

17.7 km/h aus 116

27.4 km/h aus SSW

10.5 C

9.3 C

9.3 C

11.9 C

0 W/m

0.00 mm

00:35

11.9 C

1009.0 hpa

91 %

19.3 km/h aus 114

32.2 km/h aus SSW

10.5 C

9.1 C

9.1 C

12.0 C

0 W/m

0.00 mm

00:40

11.9 C

1009.0 hpa

90 %

16.1 km/h aus 114

25.7 km/h aus SSW

10.4 C

9.7 C

9.7 C

12.0 C

0 W/m

0.00 mm

00:45

12.0 C

1009.2 hpa

90 %

22.5 km/h aus 117

32.2 km/h aus SSW

10.4 C

8.7 C

8.7 C

12.1 C

0 W/m

0.00 mm

00:50

12.1 C

1009.2 hpa

90 %

20.9 km/h aus 116

38.6 km/h aus SW

10.5 C

9.0 C

8.9 C

12.1 C

0 W/m

0.00 mm

00:55

12.1 C

1009.2 hpa

90 %

22.5 km/h aus 117

40.2 km/h aus SW

10.5 C

8.8 C

8.7 C

12.1 C

0 W/m

0.00 mm

01:00

12.1 C

1008.9 hpa

90 %

20.9 km/h aus 116

33.8 km/h aus SSW

10.5 C

9.0 C

8.9 C

12.1 C

0 W/m

0.00 mm

01:05

12.1 C

1008.9 hpa

90 %

19.3 km/h aus 114

30.6 km/h aus SSW

10.5 C

9.2 C

9.2 C

12.1 C

0 W/m

0.00 mm

01:10

12.1 C

1008.9 hpa

90 %

17.7 km/h aus 117

27.4 km/h aus SW

10.5 C

9.5 C

9.4 C

12.1 C

0 W/m

0.00 mm

01:15

12.1 C

1009.0 hpa

90 %

16.1 km/h aus 117

25.7 km/h aus SSW

10.5 C

9.8 C

9.8 C

12.1 C

0 W/m

0.00 mm

01:20

12.0 C

1009.0 hpa

90 %

16.1 km/h aus 117

25.7 km/h aus SSW

10.4 C

9.8 C

9.7 C

12.1 C

0 W/m

0.00 mm

01:25

11.9 C

1009.0 hpa

90 %

17.7 km/h aus 116

29.0 km/h aus SW

10.4 C

9.4 C

9.3 C

12.0 C

0 W/m

0.00 mm

01:30

11.9 C

1008.7 hpa

90 %

16.1 km/h aus 114

30.6 km/h aus SW

10.3 C

9.7 C

9.6 C

11.9 C

0 W/m

0.00 mm

01:35

11.9 C

1008.7 hpa

91 %

17.7 km/h aus 117

29.0 km/h aus SW

10.5 C

9.3 C

9.3 C

11.9 C

0 W/m

0.00 mm

01:40

11.8 C

1008.7 hpa

91 %

22.5 km/h aus 115

30.6 km/h aus SSW

10.4 C

8.6 C

8.5 C

11.9 C

0 W/m

0.00 mm

01:45

11.8 C

1008.7 hpa

91 %

16.1 km/h aus 117

30.6 km/h aus S

10.4 C

9.6 C

9.6 C

11.9 C

0 W/m

0.00 mm

01:50

11.8 C

1008.7 hpa

91 %

19.3 km/h aus 117

30.6 km/h aus SSW

10.4 C

8.9 C

8.8 C

11.8 C

0 W/m

0.00 mm

01:55

11.8 C

1008.7 hpa

91 %

19.3 km/h aus 114

32.2 km/h aus SSW

10.4 C

8.9 C

8.8 C

11.8 C

0 W/m

0.00 mm

02:00

11.8 C

1008.5 hpa

91 %

17.7 km/h aus 116

30.6 km/h aus SW

10.4 C

9.2 C

9.1 C

11.8 C

0 W/m

0.00 mm

02:05

11.7 C

1008.5 hpa

91 %

14.5 km/h aus 117

25.7 km/h aus S

10.3 C

9.8 C

9.7 C

11.8 C

0 W/m

0.00 mm

02:10

11.7 C

1008.5 hpa

91 %

19.3 km/h aus 116

32.2 km/h aus SW

10.3 C

8.8 C

8.8 C

11.8 C

0 W/m

0.25 mm

02:15

11.7 C

1008.3 hpa

91 %

16.1 km/h aus 117

29.0 km/h aus SW

10.3 C

9.4 C

9.4 C

11.8 C

0 W/m

0.00 mm

02:20

11.7 C

1008.3 hpa

91 %

16.1 km/h aus 115

30.6 km/h aus SSW

10.3 C

9.4 C

9.4 C

11.8 C

0 W/m

0.00 mm

02:25

11.7 C

1008.3 hpa

92 %

17.7 km/h aus 116

27.4 km/h aus SSW

10.5 C

9.2 C

9.1 C

11.8 C

0 W/m

0.00 mm

02:30

11.7 C

1008.2 hpa

92 %

19.3 km/h aus 117

30.6 km/h aus SW

10.4 C

8.8 C

8.7 C

11.8 C

0 W/m

0.00 mm

02:35

11.7 C

1008.2 hpa

92 %

17.7 km/h aus 117

29.0 km/h aus SW

10.4 C

9.1 C

9.0 C

11.8 C

0 W/m

0.00 mm

02:40

11.6 C

1008.2 hpa

92 %

22.5 km/h aus 117

45.1 km/h aus SSW

10.4 C

8.3 C

8.2 C

11.7 C

0 W/m

0.00 mm

02:45

11.6 C

1008.0 hpa

92 %

22.5 km/h aus 115

35.4 km/h aus SSW

10.4 C

8.3 C

8.2 C

11.7 C

0 W/m

0.00 mm

02:50

11.6 C

1008.0 hpa

92 %

19.3 km/h aus 115

33.8 km/h aus SSW

10.4 C

8.8 C

8.7 C

11.7 C

0 W/m

0.00 mm

02:55

11.6 C

1008.0 hpa

92 %

22.5 km/h aus 117

35.4 km/h aus SSW

10.4 C

8.3 C

8.2 C

11.7 C

0 W/m

0.00 mm

03:00

11.6 C

1007.8 hpa

91 %

22.5 km/h aus 117

37.0 km/h aus SW

10.2 C

8.3 C

8.2 C

11.7 C

0 W/m

0.00 mm

03:05

11.6 C

1007.8 hpa

91 %

16.1 km/h aus 113

29.0 km/h aus WSW

10.2 C

9.3 C

9.3 C

11.7 C

0 W/m

0.00 mm

03:10

11.6 C

1007.8 hpa

91 %

17.7 km/h aus 116

30.6 km/h aus S

10.1 C

9.0 C

8.9 C

11.7 C

0 W/m

0.00 mm

03:15

11.6 C

1007.8 hpa

92 %

19.3 km/h aus 114

33.8 km/h aus SSW

10.3 C

8.7 C

8.6 C

11.7 C

0 W/m

0.00 mm

03:20

11.6 C

1007.8 hpa

92 %

14.5 km/h aus 117

27.4 km/h aus SSW

10.3 C

9.7 C

9.6 C

11.7 C

0 W/m

0.00 mm

03:25

11.5 C

1007.8 hpa

92 %

19.3 km/h aus 118

35.4 km/h aus SW

10.2 C

8.7 C

8.6 C

11.6 C

0 W/m

0.00 mm

03:30

11.5 C

1007.7 hpa

92 %

16.1 km/h aus 117

30.6 km/h aus S

10.2 C

9.2 C

9.1 C

11.6 C

0 W/m

0.00 mm

03:35

11.5 C

1007.7 hpa

92 %

16.1 km/h aus 116

29.0 km/h aus SSW

10.2 C

9.2 C

9.1 C

11.6 C

0 W/m

0.00 mm

03:40

11.4 C

1007.7 hpa

92 %

19.3 km/h aus 114

32.2 km/h aus S

10.2 C

8.6 C

8.5 C

11.6 C

0 W/m

0.00 mm

03:45

11.4 C

1007.5 hpa

92 %

16.1 km/h aus 115

29.0 km/h aus S

10.2 C

9.2 C

9.1 C

11.6 C

0 W/m

0.00 mm

03:50

11.4 C

1007.5 hpa

92 %

17.7 km/h aus 115

32.2 km/h aus S

10.2 C

8.9 C

8.8 C

11.6 C

0 W/m

0.00 mm

03:55

11.4 C

1007.5 hpa

92 %

22.5 km/h aus 116

32.2 km/h aus S

10.1 C

8.1 C

7.9 C

11.5 C

0 W/m

0.00 mm

04:00

11.4 C

1007.2 hpa

92 %

20.9 km/h aus 117

30.6 km/h aus S

10.1 C

8.3 C

8.2 C

11.5 C

0 W/m

0.00 mm

04:05

11.4 C

1007.2 hpa

92 %

20.9 km/h aus 114

37.0 km/h aus SSW

10.1 C

8.3 C

8.2 C

11.5 C

0 W/m

0.00 mm

04:10

11.4 C

1007.2 hpa

92 %

22.5 km/h aus 116

32.2 km/h aus S

10.1 C

8.1 C

7.9 C

11.5 C

0 W/m

0.00 mm

04:15

11.4 C

1007.1 hpa

92 %

20.9 km/h aus 117

33.8 km/h aus S

10.1 C

8.3 C

8.2 C

11.5 C

0 W/m

0.00 mm

04:20

11.3 C

1007.1 hpa

92 %

20.9 km/h aus 117

32.2 km/h aus S

10.1 C

8.2 C

8.1 C

11.4 C

0 W/m

0.00 mm

04:25

11.3 C

1007.1 hpa

92 %

19.3 km/h aus 116

32.2 km/h aus SSW

10.1 C

8.4 C

8.3 C

11.4 C

0 W/m

0.00 mm

04:30

11.3 C

1006.9 hpa

92 %

17.7 km/h aus 116

27.4 km/h aus SSW

10.1 C

8.7 C

8.6 C

11.4 C

0 W/m

0.00 mm

04:35

11.3 C

1006.9 hpa

92 %

19.3 km/h aus 115

30.6 km/h aus SSW

10.0 C

8.4 C

8.3 C

11.4 C

0 W/m

0.00 mm

04:40

11.3 C

1006.9 hpa

92 %

20.9 km/h aus 117

37.0 km/h aus SSW

10.0 C

8.2 C

8.1 C

11.4 C

0 W/m

0.00 mm

04:45

11.3 C

1006.8 hpa

92 %

17.7 km/h aus 117

32.2 km/h aus SSE

10.0 C

8.7 C

8.6 C

11.4 C

0 W/m

0.00 mm

04:50

11.2 C

1006.8 hpa

92 %

19.3 km/h aus 117

35.4 km/h aus SSW

10.0 C

8.3 C

8.2 C

11.3 C

0 W/m

0.00 mm

04:55

11.2 C

1006.8 hpa

92 %

17.7 km/h aus 117

30.6 km/h aus S

10.0 C

8.6 C

8.5 C

11.3 C

0 W/m

0.00 mm

05:00

11.2 C

1006.7 hpa

92 %

19.3 km/h aus 114

30.6 km/h aus SSW

10.0 C

8.3 C

8.2 C

11.3 C

0 W/m

0.00 mm

05:05

11.2 C

1006.7 hpa

92 %

20.9 km/h aus 116

37.0 km/h aus SSW

10.0 C

8.1 C

8.0 C

11.3 C

0 W/m

0.00 mm

05:10

11.3 C

1006.7 hpa

92 %

20.9 km/h aus 117

37.0 km/h aus SSW

10.0 C

8.2 C

8.1 C

11.4 C

0 W/m

0.00 mm

05:15

11.3 C

1006.6 hpa

92 %

20.9 km/h aus 117

32.2 km/h aus SSW

10.0 C

8.2 C

8.1 C

11.4 C

0 W/m

0.00 mm

05:20

11.3 C

1006.6 hpa

92 %

19.3 km/h aus 117

35.4 km/h aus S

10.0 C

8.4 C

8.3 C

11.4 C

0 W/m

0.00 mm

05:25

11.3 C

1006.6 hpa

92 %

16.1 km/h aus 115

27.4 km/h aus SSW

10.0 C

9.0 C

8.9 C

11.4 C

0 W/m

0.00 mm

05:30

11.3 C

1006.4 hpa

92 %

20.9 km/h aus 115

32.2 km/h aus SSW

10.0 C

8.2 C

8.1 C

11.4 C

0 W/m

0.00 mm

05:35

11.3 C

1006.4 hpa

92 %

20.9 km/h aus 117

33.8 km/h aus SSW

10.1 C

8.2 C

8.1 C

11.4 C

0 W/m

0.00 mm

05:40

11.3 C

1006.4 hpa

92 %

20.9 km/h aus 117

32.2 km/h aus SW

10.1 C

8.2 C

8.1 C

11.4 C

0 W/m

0.00 mm

05:45

11.3 C

1006.3 hpa

92 %

16.1 km/h aus 117

27.4 km/h aus S

10.1 C

9.1 C

8.9 C

11.4 C

0 W/m

0.00 mm

05:50

11.3 C

1006.3 hpa

92 %

17.7 km/h aus 115

29.0 km/h aus SSW

10.1 C

8.7 C

8.6 C

11.4 C

0 W/m

0.00 mm

05:55

11.3 C

1006.3 hpa

92 %

19.3 km/h aus 115

33.8 km/h aus S

10.1 C

8.4 C

8.3 C

11.4 C

0 W/m

0.00 mm

06:00

11.3 C

1006.2 hpa

92 %

20.9 km/h aus 117

37.0 km/h aus SSW

10.1 C

8.2 C

8.1 C

11.4 C

0 W/m

0.00 mm

06:05

11.3 C

1006.2 hpa

92 %

19.3 km/h aus 117

30.6 km/h aus S

10.1 C

8.4 C

8.3 C

11.4 C

0 W/m

0.00 mm

06:10

11.3 C

1006.2 hpa

92 %

17.7 km/h aus 117

33.8 km/h aus SSW

10.1 C

8.7 C

8.6 C

11.4 C

0 W/m

0.00 mm

06:15

11.3 C

1006.2 hpa

92 %

19.3 km/h aus 116

30.6 km/h aus SSW

10.1 C

8.4 C

8.3 C

11.4 C

0 W/m

0.00 mm

06:20

11.3 C

1006.2 hpa

92 %

14.5 km/h aus 114

27.4 km/h aus SSW

10.1 C

9.4 C

9.3 C

11.4 C

0 W/m

0.00 mm

06:25

11.3 C

1006.2 hpa

92 %

19.3 km/h aus 117

37.0 km/h aus SW

10.1 C

8.4 C

8.3 C

11.4 C

0 W/m

0.00 mm

06:30

11.3 C

1006.1 hpa

92 %

20.9 km/h aus 117

33.8 km/h aus SSW

10.1 C

8.2 C

8.1 C

11.4 C

0 W/m

0.00 mm

06:35

11.3 C

1006.1 hpa

92 %

17.7 km/h aus 117

29.0 km/h aus SSE

10.1 C

8.7 C

8.6 C

11.4 C

0 W/m

0.00 mm

06:40

11.3 C

1006.1 hpa

92 %

20.9 km/h aus 117

33.8 km/h aus SSW

10.1 C

8.2 C

8.1 C

11.4 C

0 W/m

0.00 mm

06:45

11.3 C

1005.9 hpa

92 %

19.3 km/h aus 113

33.8 km/h aus SSW

10.1 C

8.4 C

8.3 C

11.4 C

0 W/m

0.00 mm

06:50

11.3 C

1005.9 hpa

92 %

17.7 km/h aus 116

32.2 km/h aus S

10.1 C

8.7 C

8.6 C

11.4 C

0 W/m

0.00 mm

06:55

11.3 C

1005.9 hpa

92 %

17.7 km/h aus 117

29.0 km/h aus S

10.0 C

8.7 C

8.6 C

11.4 C

0 W/m

0.00 mm

07:00

11.3 C

1005.7 hpa

92 %

20.9 km/h aus 116

32.2 km/h aus SSW

10.1 C

8.2 C

8.1 C

11.4 C

0 W/m

0.00 mm

07:05

11.3 C

1005.7 hpa

92 %

20.9 km/h aus 117

35.4 km/h aus S

10.1 C

8.2 C

8.1 C

11.4 C

0 W/m

0.00 mm

07:10

11.3 C

1005.7 hpa

92 %

19.3 km/h aus 114

37.0 km/h aus SW

10.1 C

8.4 C

8.3 C

11.4 C

0 W/m

0.00 mm

07:15

11.3 C

1005.6 hpa

92 %

19.3 km/h aus 115

33.8 km/h aus SW

10.1 C

8.4 C

8.3 C

11.4 C

0 W/m

0.00 mm

07:20

11.3 C

1005.6 hpa

92 %

17.7 km/h aus 117

29.0 km/h aus S

10.1 C

8.7 C

8.6 C

11.4 C

0 W/m

0.00 mm

07:25

11.3 C

1005.6 hpa

92 %

17.7 km/h aus 117

29.0 km/h aus SSW

10.1 C

8.7 C

8.6 C

11.4 C

0 W/m

0.00 mm

07:30

11.3 C

1005.5 hpa

92 %

19.3 km/h aus 117

29.0 km/h aus SSW

10.1 C

8.4 C

8.3 C

11.4 C

0 W/m

0.00 mm

07:35

11.4 C

1005.5 hpa

91 %

17.7 km/h aus 115

29.0 km/h aus SSW

10.0 C

8.8 C

8.7 C

11.5 C

0 W/m

0.00 mm

07:40

11.3 C

1005.5 hpa

91 %

17.7 km/h aus 115

30.6 km/h aus SSW

9.9 C

8.7 C

8.6 C

11.4 C

0 W/m

0.00 mm

07:45

11.4 C

1005.1 hpa

91 %

17.7 km/h aus 118

33.8 km/h aus SSW

10.0 C

8.8 C

8.7 C

11.5 C

0 W/m

0.00 mm

07:50

11.4 C

1005.1 hpa

91 %

19.3 km/h aus 116

30.6 km/h aus SW

10.0 C

8.6 C

8.5 C

11.6 C

0 W/m

0.00 mm

07:55

11.4 C

1005.1 hpa

91 %

20.9 km/h aus 117

37.0 km/h aus S

10.0 C

8.4 C

8.3 C

11.6 C

0 W/m

0.00 mm

08:00

11.4 C

1005.0 hpa

91 %

17.7 km/h aus 116

32.2 km/h aus SSW

10.0 C

8.9 C

8.8 C

11.6 C

0 W/m

0.00 mm

08:05

11.4 C

1005.0 hpa

91 %

17.7 km/h aus 113

30.6 km/h aus SSW

10.0 C

8.9 C

8.8 C

11.6 C

0 W/m

0.00 mm

08:10

11.4 C

1005.0 hpa

91 %

17.7 km/h aus 117

32.2 km/h aus SW

10.0 C

8.9 C

8.8 C

11.6 C

0 W/m

0.00 mm

08:15

11.4 C

1004.7 hpa

91 %

25.7 km/h aus 117

37.0 km/h aus SSW

10.0 C

7.8 C

7.7 C

11.6 C

0 W/m

0.00 mm

08:20

11.4 C

1004.7 hpa

91 %

20.9 km/h aus 116

38.6 km/h aus SW

10.0 C

8.4 C

8.3 C

11.6 C

0 W/m

0.00 mm

08:25

11.4 C

1004.7 hpa

91 %

20.9 km/h aus 117

30.6 km/h aus SSW

10.0 C

8.4 C

8.3 C

11.6 C

0 W/m

0.00 mm

08:30

11.4 C

1004.6 hpa

91 %

22.5 km/h aus 113

38.6 km/h aus S

10.0 C

8.2 C

8.1 C

11.6 C

0 W/m

0.00 mm

08:35

11.4 C

1004.6 hpa

91 %

19.3 km/h aus 115

37.0 km/h aus S

10.0 C

8.6 C

8.5 C

11.6 C

0 W/m

0.00 mm

08:40

11.4 C

1004.6 hpa

91 %

27.4 km/h aus 116

43.5 km/h aus SSW

10.0 C

7.7 C

7.6 C

11.6 C

0 W/m

0.00 mm

08:45

11.4 C

1004.5 hpa

91 %

24.1 km/h aus 118

37.0 km/h aus S

10.0 C

8.0 C

7.9 C

11.6 C

1 W/m

0.00 mm

08:50

11.4 C

1004.5 hpa

91 %

20.9 km/h aus 117

37.0 km/h aus S

10.0 C

8.4 C

8.3 C

11.6 C

6 W/m

0.00 mm

08:55

11.4 C

1004.5 hpa

92 %

17.7 km/h aus 114

27.4 km/h aus S

10.2 C

8.9 C

8.8 C

11.6 C

12 W/m

0.00 mm

09:00

11.4 C

1004.3 hpa

92 %

20.9 km/h aus 115

30.6 km/h aus S

10.2 C

8.4 C

8.3 C

11.6 C

12 W/m

0.00 mm

09:05

11.4 C

1004.3 hpa

92 %

17.7 km/h aus 117

25.7 km/h aus S

10.2 C

8.9 C

8.8 C

11.6 C

9 W/m

0.00 mm

09:10

11.4 C

1004.3 hpa

92 %

14.5 km/h aus 116

27.4 km/h aus SSE

10.2 C

9.5 C

9.4 C

11.6 C

6 W/m

0.00 mm

09:15

11.4 C

1004.1 hpa

92 %

17.7 km/h aus 117

30.6 km/h aus S

10.1 C

8.8 C

8.7 C

11.5 C

6 W/m

0.00 mm

09:20

11.3 C

1004.1 hpa

92 %

16.1 km/h aus 116

25.7 km/h aus S

10.1 C

9.1 C

8.9 C

11.4 C

9 W/m

0.00 mm

09:25

11.3 C

1004.1 hpa

92 %

17.7 km/h aus 114

29.0 km/h aus S

10.1 C

8.7 C

8.6 C

11.4 C

8 W/m

0.00 mm

09:30

11.3 C

1004.0 hpa

92 %

16.1 km/h aus 117

22.5 km/h aus S

10.1 C

9.1 C

8.9 C

11.4 C

8 W/m

0.25 mm

09:35

11.3 C

1004.0 hpa

92 %

19.3 km/h aus 117

29.0 km/h aus S

10.0 C

8.4 C

8.3 C

11.4 C

11 W/m

0.00 mm

09:40

11.3 C

1004.0 hpa

92 %

19.3 km/h aus 116

33.8 km/h aus SSW

10.0 C

8.4 C

8.3 C

11.4 C

12 W/m

0.00 mm

09:45

11.3 C

1003.9 hpa

92 %

17.7 km/h aus 117

25.7 km/h aus SSW

10.0 C

8.7 C

8.6 C

11.4 C

13 W/m

0.00 mm

09:50

11.3 C

1003.9 hpa

92 %

16.1 km/h aus 115

25.7 km/h aus S

10.0 C

9.0 C

8.9 C

11.4 C

12 W/m

0.00 mm

09:55

11.3 C

1003.9 hpa

92 %

17.7 km/h aus 116

32.2 km/h aus S

10.0 C

8.7 C

8.6 C

11.4 C

13 W/m

0.00 mm

10:00

11.3 C

1003.6 hpa

92 %

19.3 km/h aus 117

33.8 km/h aus S

10.0 C

8.4 C

8.3 C

11.4 C

15 W/m

0.25 mm

10:05

11.3 C

1003.6 hpa

92 %

17.7 km/h aus 116

30.6 km/h aus SSW

10.0 C

8.7 C

8.6 C

11.4 C

19 W/m

0.00 mm

10:10

11.3 C

1003.6 hpa

92 %

17.7 km/h aus 116

32.2 km/h aus SSW

10.0 C

8.7 C

8.6 C

11.4 C

18 W/m

0.00 mm

10:15

11.3 C

1003.5 hpa

92 %

16.1 km/h aus 115

25.7 km/h aus SSW

10.0 C

9.0 C

8.9 C

11.4 C

18 W/m

0.00 mm

10:20

11.3 C

1003.5 hpa

92 %

17.7 km/h aus 115

30.6 km/h aus SSW

10.0 C

8.7 C

8.6 C

11.4 C

18 W/m

0.00 mm

10:25

11.3 C

1003.5 hpa

92 %

16.1 km/h aus 117

33.8 km/h aus SW

10.0 C

9.0 C

8.9 C

11.4 C

17 W/m

0.00 mm

10:30

11.3 C

1003.1 hpa

92 %

17.7 km/h aus 117

29.0 km/h aus S

10.0 C

8.7 C

8.6 C

11.4 C

23 W/m

0.00 mm

10:35

11.3 C

1003.1 hpa

92 %

20.9 km/h aus 116

37.0 km/h aus S

10.0 C

8.2 C

8.1 C

11.4 C

22 W/m

0.00 mm

10:40

11.3 C

1003.1 hpa

92 %

16.1 km/h aus 114

29.0 km/h aus S

10.1 C

9.1 C

8.9 C

11.4 C

21 W/m

0.00 mm

10:45

11.3 C

1003.0 hpa

92 %

16.1 km/h aus 113

24.1 km/h aus SSE

10.1 C

9.1 C

8.9 C

11.4 C

21 W/m

0.00 mm

10:50

11.3 C

1003.0 hpa

92 %

20.9 km/h aus 117

43.5 km/h aus S

10.1 C

8.2 C

8.1 C

11.4 C

23 W/m

0.00 mm

10:55

11.3 C

1003.0 hpa

92 %

19.3 km/h aus 118

38.6 km/h aus SSE

10.1 C

8.4 C

8.3 C

11.4 C

18 W/m

0.00 mm

11:00

11.3 C

1002.6 hpa

92 %

20.9 km/h aus 117

46.7 km/h aus ENE

10.1 C

8.2 C

8.1 C

11.4 C

16 W/m

0.00 mm

11:05

11.4 C

1002.6 hpa

91 %

22.5 km/h aus 117

41.8 km/h aus SSW

10.0 C

8.1 C

7.9 C

11.5 C

16 W/m

0.00 mm

11:10

11.4 C

1002.6 hpa

91 %

22.5 km/h aus 114

40.2 km/h aus SSW

10.0 C

8.1 C

7.9 C

11.5 C

18 W/m

0.00 mm

11:15

11.4 C

1002.4 hpa

91 %

20.9 km/h aus 116

41.8 km/h aus SSW

10.0 C

8.4 C

8.3 C

11.6 C

21 W/m

0.00 mm

11:20

11.4 C

1002.4 hpa

91 %

16.1 km/h aus 117

27.4 km/h aus SSW

10.0 C

9.2 C

9.1 C

11.6 C

23 W/m

0.00 mm

11:25

11.4 C

1002.4 hpa

91 %

17.7 km/h aus 116

30.6 km/h aus SW

10.0 C

8.9 C

8.8 C

11.6 C

23 W/m

0.00 mm

11:30

11.4 C

1002.0 hpa

91 %

16.1 km/h aus 116

27.4 km/h aus SSW

10.0 C

9.2 C

9.1 C

11.6 C

26 W/m

0.00 mm

11:35

11.4 C

1002.0 hpa

91 %

19.3 km/h aus 114

37.0 km/h aus S

10.0 C

8.6 C

8.4 C

11.5 C

20 W/m

0.00 mm

11:40

11.4 C

1002.0 hpa

91 %

16.1 km/h aus 115

29.0 km/h aus SSW

10.0 C

9.1 C

9.0 C

11.5 C

18 W/m

0.00 mm

11:45

11.3 C

1001.9 hpa

91 %

14.5 km/h aus 117

24.1 km/h aus SSW

9.9 C

9.4 C

9.3 C

11.4 C

17 W/m

0.00 mm

11:50

11.3 C

1001.9 hpa

91 %

20.9 km/h aus 117

35.4 km/h aus SW

9.9 C

8.2 C

8.1 C

11.4 C

18 W/m

0.00 mm

11:55

11.3 C

1001.9 hpa

91 %

19.3 km/h aus 116

35.4 km/h aus SSW

9.9 C

8.4 C

8.3 C

11.4 C

22 W/m

0.00 mm

12:00

11.3 C

1001.4 hpa

91 %

17.7 km/h aus 116

33.8 km/h aus SW

9.9 C

8.7 C

8.6 C

11.4 C

21 W/m

0.00 mm

12:05

11.3 C

1001.4 hpa

91 %

17.7 km/h aus 114

29.0 km/h aus S

9.9 C

8.7 C

8.6 C

11.4 C

27 W/m

0.00 mm

12:10

11.3 C

1001.4 hpa

91 %

19.3 km/h aus 117

29.0 km/h aus S

9.9 C

8.4 C

8.3 C

11.4 C

27 W/m

0.00 mm

12:15

11.3 C

1001.0 hpa

91 %

17.7 km/h aus 117

35.4 km/h aus S

9.9 C

8.7 C

8.6 C

11.4 C

23 W/m

0.00 mm

12:20

11.3 C

1001.0 hpa

91 %

17.7 km/h aus 117

25.7 km/h aus S

9.9 C

8.7 C

8.6 C

11.4 C

21 W/m

0.00 mm

12:25

11.3 C

1001.0 hpa

91 %

19.3 km/h aus 116

35.4 km/h aus S

9.9 C

8.4 C

8.3 C

11.4 C

23 W/m

0.00 mm

12:30

11.3 C

1000.5 hpa

91 %

24.1 km/h aus 114

37.0 km/h aus S

9.9 C

7.8 C

7.7 C

11.4 C

24 W/m

0.00 mm

12:35

11.3 C

1000.5 hpa

91 %

16.1 km/h aus 117

25.7 km/h aus S

9.9 C

9.1 C

8.9 C

11.4 C

27 W/m

0.00 mm

12:40

11.3 C

1000.5 hpa

92 %

12.9 km/h aus 116

19.3 km/h aus S

10.1 C

9.8 C

9.7 C

11.4 C

26 W/m

0.00 mm

12:45

11.3 C

1000.2 hpa

92 %

19.3 km/h aus 117

33.8 km/h aus S

10.1 C

8.4 C

8.3 C

11.4 C

22 W/m

0.00 mm

12:50

11.3 C

1000.2 hpa

92 %

16.1 km/h aus 117

32.2 km/h aus SSE

10.0 C

9.0 C

8.9 C

11.4 C

19 W/m

0.00 mm

12:55

11.3 C

1000.2 hpa

92 %

16.1 km/h aus 114

25.7 km/h aus S

10.0 C

9.0 C

8.9 C

11.4 C

18 W/m

0.00 mm

13:00

11.3 C

999.8 hpa

92 %

16.1 km/h aus 116

32.2 km/h aus SSW

10.0 C

9.0 C

8.9 C

11.4 C

23 W/m

0.00 mm

13:05

11.3 C

999.8 hpa

92 %

17.7 km/h aus 117

29.0 km/h aus SSE

10.0 C

8.7 C

8.6 C

11.4 C

31 W/m

0.00 mm

13:10

11.3 C

999.8 hpa

92 %

19.3 km/h aus 117

33.8 km/h aus SSW

10.0 C

8.4 C

8.3 C

11.4 C

38 W/m

0.00 mm

13:15

11.3 C

999.7 hpa

92 %

14.5 km/h aus 115

25.7 km/h aus SW

10.1 C

9.4 C

9.3 C

11.4 C

48 W/m

0.00 mm

13:20

11.3 C

999.7 hpa

92 %

20.9 km/h aus 116

32.2 km/h aus SSW

10.1 C

8.2 C

8.1 C

11.4 C

43 W/m

0.00 mm

13:25

11.3 C

999.7 hpa

92 %

20.9 km/h aus 113

35.4 km/h aus WSW

10.1 C

8.2 C

8.1 C

11.4 C

47 W/m

0.00 mm

13:30

11.3 C

999.4 hpa

92 %

16.1 km/h aus 117

27.4 km/h aus SSW

10.1 C

9.1 C

8.9 C

11.4 C

37 W/m

0.00 mm

13:35

11.3 C

999.4 hpa

92 %

14.5 km/h aus 117

25.7 km/h aus SW

10.1 C

9.4 C

9.3 C

11.4 C

32 W/m

0.00 mm

13:40

11.3 C

999.4 hpa

91 %

20.9 km/h aus 116

37.0 km/h aus SSW

9.9 C

8.2 C

8.1 C

11.4 C

24 W/m

0.00 mm

13:45

11.3 C

999.0 hpa

91 %

20.9 km/h aus 117

38.6 km/h aus SSW

9.9 C

8.2 C

8.1 C

11.4 C

33 W/m

0.00 mm

13:50

11.3 C

999.0 hpa

91 %

20.9 km/h aus 112

35.4 km/h aus S

9.9 C

8.2 C

8.1 C

11.4 C

34 W/m

0.00 mm

13:55

11.3 C

999.0 hpa

91 %

19.3 km/h aus 116

35.4 km/h aus S

9.9 C

8.4 C

8.3 C

11.4 C

44 W/m

0.00 mm

14:00

11.4 C

998.7 hpa

91 %

16.1 km/h aus 117

27.4 km/h aus SSW

10.0 C

9.1 C

9.0 C

11.5 C

61 W/m

0.00 mm

14:05

11.4 C

998.7 hpa

91 %

17.7 km/h aus 116

27.4 km/h aus SSE

10.0 C

8.9 C

8.8 C

11.6 C

72 W/m

0.00 mm

14:10

11.5 C

998.7 hpa

91 %

12.9 km/h aus 117

22.5 km/h aus SW

10.1 C

9.9 C

9.8 C

11.6 C

80 W/m

0.00 mm

14:15

11.6 C

998.2 hpa

90 %

20.9 km/h aus 113

35.4 km/h aus S

10.0 C

8.4 C

8.4 C

11.6 C

57 W/m

0.00 mm

14:20

11.6 C

998.2 hpa

90 %

19.3 km/h aus 115

30.6 km/h aus SSW

10.0 C

8.7 C

8.6 C

11.6 C

33 W/m

0.00 mm

14:25

11.6 C

998.2 hpa

90 %

16.1 km/h aus 117

32.2 km/h aus SSW

10.0 C

9.3 C

9.3 C

11.7 C

33 W/m

0.00 mm

14:30

11.6 C

997.7 hpa

89 %

17.7 km/h aus 115

25.7 km/h aus S

9.9 C

9.0 C

8.9 C

11.7 C

35 W/m

0.00 mm

14:35

11.6 C

997.7 hpa

89 %

12.9 km/h aus 117

25.7 km/h aus S

9.9 C

10.1 C

10.0 C

11.7 C

23 W/m

0.00 mm

14:40

11.6 C

997.7 hpa

89 %

17.7 km/h aus 115

30.6 km/h aus S

9.9 C

9.0 C

8.9 C

11.7 C

25 W/m

0.00 mm

14:45

11.7 C

997.3 hpa

88 %

16.1 km/h aus 115

30.6 km/h aus S

9.7 C

9.3 C

9.3 C

11.7 C

25 W/m

0.00 mm

14:50

11.7 C

997.3 hpa

88 %

14.5 km/h aus 117

33.8 km/h aus S

9.7 C

9.7 C

9.7 C

11.7 C

27 W/m

0.00 mm

14:55

11.7 C

997.3 hpa

88 %

17.7 km/h aus 117

29.0 km/h aus SE

9.7 C

9.0 C

9.0 C

11.7 C

21 W/m

0.00 mm

15:00

11.7 C

996.7 hpa

88 %

17.7 km/h aus 117

27.4 km/h aus SSE

9.7 C

9.0 C

9.0 C

11.7 C

23 W/m

0.00 mm

15:05

11.7 C

996.7 hpa

88 %

16.1 km/h aus 116

25.7 km/h aus S

9.7 C

9.3 C

9.3 C

11.7 C

29 W/m

0.00 mm

15:10

11.7 C

996.7 hpa

88 %

17.7 km/h aus 114

29.0 km/h aus S

9.7 C

9.0 C

9.0 C

11.7 C

21 W/m

0.00 mm

15:15

11.7 C

996.7 hpa

87 %

19.3 km/h aus 117

29.0 km/h aus S

9.6 C

8.7 C

8.7 C

11.7 C

16 W/m

0.00 mm

15:20

11.7 C

996.7 hpa

87 %

16.1 km/h aus 116

29.0 km/h aus S

9.6 C

9.3 C

9.3 C

11.7 C

14 W/m

0.00 mm

15:25

11.7 C

996.7 hpa

87 %

16.1 km/h aus 116

29.0 km/h aus SSW

9.6 C

9.3 C

9.3 C

11.7 C

13 W/m

0.00 mm

15:30

11.7 C

996.7 hpa

87 %

14.5 km/h aus 116

20.9 km/h aus SSE

9.6 C

9.7 C

9.7 C

11.7 C

11 W/m

0.00 mm

15:35

11.7 C

996.7 hpa

87 %

16.1 km/h aus 114

27.4 km/h aus S

9.6 C

9.3 C

9.3 C

11.7 C

10 W/m

0.00 mm

15:40

11.7 C

996.7 hpa

86 %

17.7 km/h aus 117

25.7 km/h aus S

9.4 C

8.9 C

9.0 C

11.6 C

9 W/m

0.00 mm

15:45

11.7 C

996.3 hpa

86 %

19.3 km/h aus 117

29.0 km/h aus S

9.4 C

8.7 C

8.7 C

11.6 C

10 W/m

0.00 mm

15:50

11.7 C

996.3 hpa

86 %

17.7 km/h aus 117

30.6 km/h aus SSW

9.4 C

8.9 C

9.0 C

11.6 C

6 W/m

0.00 mm

15:55

11.7 C

996.3 hpa

86 %

19.3 km/h aus 117

33.8 km/h aus S

9.5 C

8.7 C

8.8 C

11.7 C

4 W/m

0.00 mm

16:00

11.7 C

995.7 hpa

86 %

25.7 km/h aus 114

35.4 km/h aus S

9.4 C

7.9 C

7.9 C

11.6 C

0 W/m

0.00 mm

16:05

11.7 C

995.7 hpa

85 %

24.1 km/h aus 116

38.6 km/h aus S

9.3 C

8.1 C

8.2 C

11.7 C

0 W/m

0.00 mm

16:10

11.8 C

995.7 hpa

85 %

22.5 km/h aus 117

33.8 km/h aus S

9.3 C

8.3 C

8.4 C

11.7 C

0 W/m

0.00 mm

16:15

11.8 C

995.6 hpa

85 %

20.9 km/h aus 117

30.6 km/h aus SSE

9.3 C

8.6 C

8.6 C

11.7 C

0 W/m

0.00 mm

16:20

11.8 C

995.6 hpa

85 %

20.9 km/h aus 117

27.4 km/h aus S

9.3 C

8.6 C

8.6 C

11.7 C

0 W/m

0.00 mm

16:25

11.8 C

995.6 hpa

85 %

24.1 km/h aus 115

37.0 km/h aus SSE

9.3 C

8.2 C

8.2 C

11.7 C

0 W/m

0.00 mm

16:30

11.8 C

995.4 hpa

85 %

19.3 km/h aus 115

29.0 km/h aus S

9.3 C

8.8 C

8.8 C

11.7 C

0 W/m

0.25 mm

16:35

11.7 C

995.4 hpa

85 %

20.9 km/h aus 117

30.6 km/h aus S

9.3 C

8.5 C

8.6 C

11.7 C

0 W/m

0.00 mm

16:40

11.6 C

995.4 hpa

86 %

25.7 km/h aus 117

38.6 km/h aus S

9.3 C

7.9 C

7.9 C

11.6 C

0 W/m

0.00 mm

16:45

11.5 C

995.2 hpa

86 %

17.7 km/h aus 117

27.4 km/h aus S

9.2 C

8.8 C

8.8 C

11.5 C

0 W/m

0.00 mm

16:50

11.4 C

995.2 hpa

87 %

19.3 km/h aus 115

30.6 km/h aus SSE

9.4 C

8.5 C

8.5 C

11.4 C

0 W/m

0.00 mm

16:55

11.3 C

995.2 hpa

87 %

25.7 km/h aus 114

41.8 km/h aus SSE

9.2 C

7.6 C

7.6 C

11.3 C

0 W/m

0.00 mm

17:00

11.2 C

995.1 hpa

88 %

22.5 km/h aus 117

30.6 km/h aus S

9.3 C

7.8 C

7.7 C

11.2 C

0 W/m

0.00 mm

17:05

11.1 C

995.1 hpa

89 %

20.9 km/h aus 117

35.4 km/h aus SSE

9.3 C

7.9 C

7.8 C

11.2 C

0 W/m

0.00 mm

17:10

11.0 C

995.1 hpa

89 %

24.1 km/h aus 117

35.4 km/h aus SSE

9.3 C

7.5 C

7.4 C

11.1 C

0 W/m

0.00 mm

17:15

10.9 C

994.6 hpa

90 %

20.9 km/h aus 116

33.8 km/h aus SSW

9.3 C

7.7 C

7.6 C

11.0 C

0 W/m

0.00 mm

17:20

10.8 C

994.6 hpa

90 %

20.9 km/h aus 114

32.2 km/h aus S

9.3 C

7.7 C

7.6 C

10.9 C

0 W/m

0.00 mm

17:25

10.8 C

994.6 hpa

90 %

20.9 km/h aus 116

30.6 km/h aus S

9.2 C

7.6 C

7.5 C

10.9 C

0 W/m

0.00 mm

17:30

10.8 C

994.1 hpa

90 %

24.1 km/h aus 117

32.2 km/h aus SSE

9.2 C

7.2 C

7.1 C

10.9 C

0 W/m

0.00 mm

17:35

10.8 C

994.1 hpa

90 %

19.3 km/h aus 116

32.2 km/h aus S

9.2 C

7.8 C

7.7 C

10.9 C

0 W/m

0.00 mm

17:40

10.8 C

994.1 hpa

90 %

17.7 km/h aus 115

29.0 km/h aus S

9.2 C

8.1 C

8.0 C

10.9 C

0 W/m

0.00 mm

17:45

10.8 C

994.0 hpa

89 %

16.1 km/h aus 115

22.5 km/h aus S

9.0 C

8.4 C

8.3 C

10.9 C

0 W/m

0.00 mm

17:50

10.8 C

994.0 hpa

89 %

17.7 km/h aus 114

33.8 km/h aus S

9.1 C

8.2 C

8.1 C

10.9 C

0 W/m

0.00 mm

17:55

10.8 C

994.0 hpa

88 %

22.5 km/h aus 117

33.8 km/h aus SSE

8.9 C

7.4 C

7.4 C

10.9 C

0 W/m

0.00 mm

18:00

10.9 C

993.6 hpa

88 %

20.9 km/h aus 117

32.2 km/h aus SSE

9.0 C

7.7 C

7.6 C

10.9 C

0 W/m

0.00 mm

18:05

10.9 C

993.6 hpa

88 %

22.5 km/h aus 117

37.0 km/h aus S

9.0 C

7.6 C

7.5 C

11.0 C

0 W/m

0.00 mm

18:10

11.0 C

993.6 hpa

87 %

22.5 km/h aus 116

33.8 km/h aus SSE

8.9 C

7.6 C

7.6 C

11.1 C

0 W/m

0.00 mm

18:15

10.9 C

993.5 hpa

88 %

29.0 km/h aus 113

46.7 km/h aus SSE

9.0 C

6.9 C

6.8 C

11.0 C

0 W/m

0.00 mm

18:20

10.9 C

993.5 hpa

88 %

24.1 km/h aus 115

38.6 km/h aus SSE

9.0 C

7.3 C

7.2 C

10.9 C

0 W/m

0.00 mm

18:25

10.8 C

993.5 hpa

88 %

25.7 km/h aus 118

37.0 km/h aus S

8.9 C

7.1 C

7.0 C

10.9 C

0 W/m

0.25 mm

18:30

10.7 C

993.1 hpa

88 %

25.7 km/h aus 117

40.2 km/h aus S

8.8 C

6.9 C

6.9 C

10.8 C

0 W/m

0.00 mm

18:35

10.7 C

993.1 hpa

89 %

20.9 km/h aus 117

37.0 km/h aus S

8.9 C

7.4 C

7.3 C

10.8 C

0 W/m

0.00 mm

18:40

10.6 C

993.1 hpa

89 %

22.5 km/h aus 114

32.2 km/h aus S

8.9 C

7.2 C

7.1 C

10.7 C

0 W/m

0.25 mm

18:45

10.6 C

993.0 hpa

89 %

22.5 km/h aus 115

40.2 km/h aus SSE

8.8 C

7.2 C

7.1 C

10.7 C

0 W/m

0.00 mm

18:50

10.5 C

993.0 hpa

89 %

22.5 km/h aus 117

38.6 km/h aus S

8.8 C

7.1 C

7.0 C

10.6 C

0 W/m

0.25 mm

18:55

10.4 C

993.0 hpa

89 %

25.7 km/h aus 115

41.8 km/h aus SSE

8.7 C

6.7 C

6.6 C

10.6 C

0 W/m

0.25 mm

19:00

10.4 C

992.7 hpa

90 %

24.1 km/h aus 117

40.2 km/h aus SSW

8.8 C

6.8 C

6.7 C

10.5 C

0 W/m

0.00 mm

19:05

10.3 C

992.7 hpa

90 %

27.4 km/h aus 116

40.2 km/h aus S

8.8 C

6.4 C

6.3 C

10.4 C

0 W/m

0.25 mm

19:10

10.3 C

992.7 hpa

90 %

24.1 km/h aus 113

35.4 km/h aus SSW

8.7 C

6.7 C

6.6 C

10.4 C

0 W/m

0.00 mm

19:15

10.2 C

992.5 hpa

90 %

25.7 km/h aus 117

38.6 km/h aus SSE

8.7 C

6.4 C

6.3 C

10.4 C

0 W/m

0.00 mm

19:20

10.2 C

992.5 hpa

90 %

20.9 km/h aus 117

32.2 km/h aus S

8.7 C

7.0 C

6.8 C

10.4 C

0 W/m

0.00 mm

19:25

10.2 C

992.5 hpa

90 %

25.7 km/h aus 117

38.6 km/h aus SSW

8.6 C

6.4 C

6.2 C

10.3 C

0 W/m

0.00 mm

19:30

10.2 C

992.4 hpa

90 %

20.9 km/h aus 118

35.4 km/h aus SSW

8.6 C

6.9 C

6.8 C

10.3 C

0 W/m

0.00 mm

19:35

10.2 C

992.4 hpa

90 %

22.5 km/h aus 114

32.2 km/h aus S

8.6 C

6.8 C

6.6 C

10.3 C

0 W/m

0.00 mm

19:40

10.1 C

992.4 hpa

90 %

22.5 km/h aus 115

33.8 km/h aus S

8.5 C

6.7 C

6.5 C

10.3 C

0 W/m

0.00 mm

19:45

10.1 C

992.0 hpa

90 %

22.5 km/h aus 117

32.2 km/h aus S

8.5 C

6.7 C

6.5 C

10.3 C

0 W/m

0.00 mm

19:50

10.1 C

992.0 hpa

90 %

22.5 km/h aus 116

32.2 km/h aus S

8.5 C

6.6 C

6.4 C

10.2 C

0 W/m

0.25 mm

19:55

10.1 C

992.0 hpa

90 %

20.9 km/h aus 117

32.2 km/h aus S

8.5 C

6.8 C

6.7 C

10.2 C

0 W/m

0.00 mm

20:00

10.0 C

991.9 hpa

90 %

24.1 km/h aus 116

37.0 km/h aus SW

8.4 C

6.4 C

6.2 C

10.2 C

0 W/m

0.00 mm

20:05

10.0 C

991.9 hpa

91 %

29.0 km/h aus 114

46.7 km/h aus SSW

8.6 C

5.9 C

5.7 C

10.2 C

0 W/m

0.00 mm

20:10

10.1 C

991.9 hpa

90 %

27.4 km/h aus 117

49.9 km/h aus S

8.5 C

6.1 C

5.9 C

10.2 C

0 W/m

0.00 mm

20:15

10.1 C

992.0 hpa

90 %

27.4 km/h aus 116

48.3 km/h aus SW

8.5 C

6.1 C

5.9 C

10.2 C

0 W/m

0.00 mm

20:20

10.1 C

992.0 hpa

90 %

29.0 km/h aus 116

51.5 km/h aus S

8.5 C

6.0 C

5.8 C

10.3 C

0 W/m

0.25 mm

20:25

10.1 C

992.0 hpa

90 %

32.2 km/h aus 116

54.7 km/h aus W

8.5 C

5.7 C

5.5 C

10.2 C

0 W/m

1.02 mm

20:30

9.2 C

993.6 hpa

87 %

17.7 km/h aus 113

35.4 km/h aus WSW

7.2 C

6.3 C

6.2 C

9.3 C

0 W/m

1.52 mm

20:35

8.8 C

993.6 hpa

88 %

14.5 km/h aus 115

38.6 km/h aus SW

6.9 C

6.3 C

6.3 C

8.8 C

0 W/m

0.25 mm

20:40

8.5 C

993.6 hpa

88 %

16.1 km/h aus 117

27.4 km/h aus WSW

6.6 C

5.7 C

5.7 C

8.6 C

0 W/m

0.25 mm

20:45

8.3 C

993.9 hpa

89 %

16.1 km/h aus 117

33.8 km/h aus W

6.6 C

5.5 C

5.4 C

8.4 C

0 W/m

0.25 mm

20:50

8.2 C

993.9 hpa

89 %

14.5 km/h aus 117

30.6 km/h aus SW

6.5 C

5.6 C

5.6 C

8.2 C

0 W/m

0.00 mm

20:55

8.1 C

993.9 hpa

90 %

12.9 km/h aus 116

22.5 km/h aus WSW

6.6 C

5.9 C

5.8 C

8.2 C

0 W/m

0.25 mm

21:00

8.0 C

994.2 hpa

90 %

12.9 km/h aus 115

24.1 km/h aus WSW

6.5 C

5.7 C

5.7 C

8.1 C

0 W/m

0.00 mm

21:05

7.9 C

994.2 hpa

90 %

12.9 km/h aus 115

25.7 km/h aus SW

6.4 C

5.7 C

5.6 C

8.0 C

0 W/m

0.00 mm

21:10

7.9 C

994.2 hpa

91 %

14.5 km/h aus 117

27.4 km/h aus WSW

6.5 C

5.3 C

5.2 C

8.0 C

0 W/m

0.25 mm

21:15

7.8 C

994.6 hpa

91 %

14.5 km/h aus 115

29.0 km/h aus WSW

6.5 C

5.2 C

5.2 C

7.9 C

0 W/m

0.00 mm

21:20

7.8 C

994.6 hpa

91 %

16.1 km/h aus 117

33.8 km/h aus W

6.4 C

4.8 C

4.8 C

7.8 C

0 W/m

0.00 mm

21:25

7.8 C

994.6 hpa

91 %

14.5 km/h aus 117

27.4 km/h aus WSW

6.4 C

5.2 C

5.1 C

7.8 C

0 W/m

0.00 mm

21:30

7.7 C

995.1 hpa

91 %

14.5 km/h aus 114

25.7 km/h aus SW

6.3 C

5.1 C

5.1 C

7.8 C

0 W/m

0.00 mm

21:35

7.7 C

995.1 hpa

91 %

14.5 km/h aus 115

33.8 km/h aus WSW

6.3 C

5.1 C

5.0 C

7.7 C

0 W/m

0.00 mm

21:40

7.6 C

995.1 hpa

91 %

17.7 km/h aus 118

29.0 km/h aus SSW

6.2 C

4.3 C

4.3 C

7.6 C

0 W/m

0.00 mm

21:45

7.5 C

995.7 hpa

91 %

17.7 km/h aus 117

35.4 km/h aus SW

6.1 C

4.3 C

4.2 C

7.6 C

0 W/m

0.00 mm

21:50

7.4 C

995.7 hpa

91 %

17.7 km/h aus 117

33.8 km/h aus WSW

6.0 C

4.2 C

4.1 C

7.4 C

0 W/m

0.00 mm

21:55

7.3 C

995.7 hpa

91 %

14.5 km/h aus 117

29.0 km/h aus SW

6.0 C

4.6 C

4.6 C

7.4 C

0 W/m

0.00 mm

22:00

7.3 C

996.1 hpa

90 %

12.9 km/h aus 113

33.8 km/h aus WSW

5.7 C

4.9 C

4.8 C

7.3 C

0 W/m

0.00 mm

22:05

7.3 C

996.1 hpa

90 %

17.7 km/h aus 116

33.8 km/h aus SW

5.7 C

4.0 C

3.9 C

7.3 C

0 W/m

0.00 mm

22:10

7.2 C

996.1 hpa

90 %

17.7 km/h aus 117

35.4 km/h aus SW

5.7 C

3.9 C

3.9 C

7.3 C

0 W/m

0.00 mm

22:15

7.2 C

996.2 hpa

90 %

16.1 km/h aus 117

29.0 km/h aus WSW

5.7 C

4.2 C

4.2 C

7.3 C

0 W/m

0.00 mm

22:20

7.2 C

996.2 hpa

90 %

17.7 km/h aus 117

38.6 km/h aus WSW

5.7 C

3.9 C

3.9 C

7.3 C

0 W/m

0.00 mm

22:25

7.2 C

996.2 hpa

90 %

14.5 km/h aus 117

27.4 km/h aus WSW

5.6 C

4.4 C

4.4 C

7.2 C

0 W/m

0.00 mm

22:30

7.1 C

996.5 hpa

90 %

14.5 km/h aus 114

30.6 km/h aus SW

5.6 C

4.4 C

4.3 C

7.2 C

0 W/m

0.00 mm

22:35

7.1 C

996.5 hpa

90 %

14.5 km/h aus 116

25.7 km/h aus WSW

5.6 C

4.4 C

4.3 C

7.2 C

0 W/m

0.00 mm

22:40

7.1 C

996.5 hpa

89 %

16.1 km/h aus 117

35.4 km/h aus SW

5.4 C

4.0 C

3.9 C

7.1 C

0 W/m

0.00 mm

22:45

7.1 C

996.7 hpa

89 %

17.7 km/h aus 118

32.2 km/h aus WSW

5.4 C

3.7 C

3.7 C

7.1 C

0 W/m

0.00 mm

22:50

7.0 C

996.7 hpa

89 %

17.7 km/h aus 116

29.0 km/h aus SSW

5.3 C

3.7 C

3.6 C

7.1 C

0 W/m

0.00 mm

22:55

7.0 C

996.7 hpa

89 %

17.7 km/h aus 117

30.6 km/h aus S

5.3 C

3.7 C

3.6 C

7.1 C

0 W/m

0.00 mm

23:00

6.9 C

997.2 hpa

89 %

16.1 km/h aus 115

33.8 km/h aus SSW

5.3 C

3.9 C

3.8 C

7.0 C

0 W/m

0.00 mm

23:05

6.9 C

997.2 hpa

89 %

16.1 km/h aus 115

32.2 km/h aus SSW

5.3 C

3.9 C

3.8 C

7.0 C

0 W/m

0.00 mm

23:10

6.9 C

997.2 hpa

88 %

19.3 km/h aus 116

38.6 km/h aus SW

5.1 C

3.3 C

3.3 C

6.9 C

0 W/m

0.00 mm

23:15

6.9 C

997.5 hpa

88 %

17.7 km/h aus 117

32.2 km/h aus WSW

5.1 C

3.6 C

3.6 C

6.9 C

0 W/m

0.00 mm

23:20

6.9 C

997.5 hpa

88 %

16.1 km/h aus 117

32.2 km/h aus SW

5.1 C

3.8 C

3.8 C

6.9 C

0 W/m

0.00 mm

23:25

6.9 C

997.5 hpa

88 %

17.7 km/h aus 117

33.8 km/h aus S

5.0 C

3.5 C

3.5 C

6.9 C

0 W/m

0.00 mm

23:30

6.9 C

997.7 hpa

87 %

16.1 km/h aus 115

32.2 km/h aus SSW

4.9 C

3.8 C

3.8 C

6.9 C

0 W/m

0.00 mm

23:35

6.8 C

997.7 hpa

87 %

19.3 km/h aus 115

37.0 km/h aus SW

4.8 C

3.2 C

3.2 C

6.8 C

0 W/m

0.00 mm

23:40

6.9 C

997.7 hpa

87 %

17.7 km/h aus 116

35.4 km/h aus SSW

4.9 C

3.5 C

3.5 C

6.9 C

0 W/m

0.00 mm

23:45

6.9 C

998.0 hpa

87 %

17.7 km/h aus 117

29.0 km/h aus SW

4.9 C

3.5 C

3.5 C

6.9 C

0 W/m

0.00 mm

23:50

6.9 C

998.0 hpa

87 %

16.1 km/h aus 118

29.0 km/h aus SSW

4.9 C

3.8 C

3.8 C

6.9 C

0 W/m

0.00 mm

23:55

6.8 C

998.0 hpa

86 %

16.1 km/h aus 117

27.4 km/h aus S

4.7 C

3.7 C

3.7 C

6.8 C

0 W/m

0.00 mm